[[{"header":{"parameterUnit":"m.s-1","parameterCategory":1,"la1":30.2991,"la2":30.254,"lo1":-89.0895,"lo2":-89.0444,"dy":0.0017,"dx":0.0017,"nx":28,"ny":28,"refTime":"2024-08-09T09:00:00:Z","depth":0,"parameterNumber":2,"parameterNumberName":"U-component_of_WINDS"},"data":[0,0,0,0,0,0,0,0,0,0,0,0,0,0,0,0,0,0,0,0,0,0,0,0,0,0,0,0,0,0,0,0,0,0,0,0,0,0,0,0,0,0,0,0,0,0,0,0,0,0,0,0,0,0,0,0,0,0,0.2144,0.2143,0,0.2106,0.2106,0.2105,0.2152,0.2154,0.2155,0.2157,0.2115,0.2113,0.211,0,0,0,0,0,0,0,0,0,0,0,0,0,0.2253,0.2251,0.2144,0.2143,0.2143,0.2106,0.2106,0.2105,0.2152,0.2154,0.2156,0.2158,0.2116,0.2113,0.211,0,0,0,0,0,0,0,0,0,0,0,0,0,0.221,0.225,0.2144,0.2162,0.2163,0.2106,0.2106,0.2105,0.2151,0.2154,0.2156,0.2159,0.2117,0.2113,0.2109,0.2032,0,0,0.2097,0.2095,0,0,0,0,0,0,0,0,0.2212,0.2206,0.2159,0.216,0.2162,0.2136,0.2129,0.208,0.2151,0.2155,0.2157,0.216,0.212,0.2116,0.2103,0.203,0.2028,0.2096,0.2094,0.2092,0.2091,0,0,0,0,0,0,0,0.2215,0.2207,0.2129,0.2159,0.216,0.2171,0.2167,0.212,0.2123,0.2155,0.2159,0.2154,0.2121,0.2107,0.2102,0.2028,0.2096,0.2093,0.209,0.2089,0.189,0.1887,0,0,0,0,0,0,0.2216,0.221,0.213,0.2128,0.2194,0.2167,0.2163,0.2142,0.2124,0.2124,0.2151,0.2156,0.2112,0.2107,0.2101,0.2009,0.2092,0.2088,0.2086,0.1893,0.1889,0.1886,0,0,0,0,0,0,0.2218,0.2209,0.2131,0.2169,0.2161,0.2162,0.2138,0.214,0.2126,0.2121,0.2122,0.2136,0.2114,0.2107,0.2049,0.2008,0.2087,0.2083,0.1896,0.1892,0.1888,0.1825,0,0,0,0,0,0,0.2221,0.2209,0.218,0.2169,0.2158,0.208,0.2135,0.2137,0.2119,0.2124,0.2107,0.2107,0.2116,0.2055,0.2045,0.2004,0.208,0.19,0.1894,0.1889,0.183,0.1819,0.1809,0,0,0,0,0,0.2225,0.2163,0.2179,0.2169,0.2122,0.2078,0.2072,0.2084,0.2115,0.2086,0.2083,0.2108,0.2015,0.2049,0.2038,0.1995,0.1902,0.1896,0.189,0.1835,0.1821,0.1809,0,0,0,0,0,0,0.2169,0.2162,0.2179,0.2112,0.2095,0.2086,0.2049,0.2069,0.2042,0.2048,0.2064,0.206,0.1998,0.1991,0.2029,0.192,0.1964,0.1955,0.1926,0.1912,0.1902,0.1904,0.2076,0,0,0,0,0,0.2149,0.2114,0.211,0.2051,0.2042,0.2047,0.2028,0.2039,0.2022,0.2015,0.2009,0.199,0.1957,0.1935,0.1904,0.1831,0.1827,0.1796,0.1785,0.1776,0.1768,0.1727,0.1713,0.1865,0.1865,0.1866,0,0,0.2107,0.2099,0.2076,0.204,0.2028,0.1991,0.2041,0.1999,0.1972,0.2009,0.1954,0.1948,0.1929,0.1863,0.1834,0.1855,0.1725,0.1768,0.1761,0.1757,0.1719,0.1705,0.1692,0.1861,0.1862,0.1863,0,0,0.201,0.2002,0.1951,0.1939,0.1922,0.1926,0.1914,0.1902,0.19,0.1846,0.1873,0.184,0.1783,0.1768,0.1753,0.1653,0.1673,0.1642,0.1585,0.1546,0.1534,0.1523,0.1486,0.1472,0.1634,0.1634,0.1634,0,0.1959,0.1905,0.1922,0.1879,0.1862,0.1896,0.1844,0.1832,0.1805,0.1792,0.1817,0.1746,0.1736,0.1666,0.1642,0.163,0.1615,0.1643,0.1534,0.1524,0.1514,0.1479,0.1465,0.163,0.1631,0.1631,0.1631,0,0.1843,0.1805,0.1767,0.1741,0.172,0.1673,0.1682,0.1658,0.1672,0.1673,0.1617,0.1606,0.1574,0.1559,0.1571,0.1491,0.1505,0.1532,0.1576,0.1495,0.1462,0.1449,0.1625,0.1626,0.1627,0.1628,0,0,0.1707,0.1693,0.1678,0.1667,0.1651,0.1622,0.1577,0.1546,0.1525,0.1506,0.1467,0.1419,0.1444,0.1427,0.1439,0.1404,0.1324,0.1436,0.1436,0.1414,0.1234,0.1212,0.1196,0.1339,0.1337,0.1335,0.1235,0,0.161,0.1531,0.1546,0.1469,0.1434,0.1467,0.1427,0.1413,0.1413,0.1383,0.1383,0.1348,0.1385,0.1375,0.1343,0.1341,0.1288,0.1349,0.1302,0.13,0.1303,0.1179,0.1155,0.1061,0.1222,0.122,0.1218,0,0.1484,0.1461,0.1381,0.1372,0.1357,0.1321,0.1295,0.1266,0.125,0.1253,0.1235,0.1253,0.1207,0.1254,0.1191,0.1231,0.1214,0.121,0.1207,0.1201,0.1252,0.1167,0.1031,0.1016,0.1199,0.12,0.1202,0,0.1391,0.1341,0.1286,0.1276,0.1263,0.1237,0.123,0.1218,0.1199,0.1176,0.1163,0.1135,0.1118,0.1096,0.1106,0.1139,0.1039,0.1088,0.1039,0.1038,0.1014,0.1015,0.0871,0.1007,0.1007,0.1007,0.1007,0,0.1278,0.1228,0.1244,0.121,0.1154,0.1172,0.1116,0.1113,0.1102,0.1068,0.1095,0.1062,0.1078,0.1046,0.1054,0.0999,0.0992,0.0992,0.0994,0.0988,0.0988,0.0975,0.0981,0.1003,0.1004,0.1005,0.1006,0,0.1163,0.1172,0.1115,0.1109,0.1106,0.1065,0.1059,0.1027,0.1031,0.0987,0.0978,0.0983,0.0947,0.0955,0.0916,0.0921,0.0852,0.0863,0.0857,0.0858,0.0809,0.0812,0.0649,0.0628,0.0779,0.0778,0.0777,0,0.109,0.1051,0.1042,0.1021,0.1013,0.098,0.0961,0.0977,0.0956,0.0937,0.0907,0.0874,0.0848,0.0789,0.0788,0.0758,0.0767,0.0713,0.0763,0.0758,0.0764,0.0765,0.0761,0.0701,0.07,0.0698,0.0697,0,0.0957,0.0964,0.0936,0.091,0.0887,0.0866,0.0849,0.083,0.0846,0.0821,0.0785,0.0765,0.0725,0.0691,0.0664,0.0657,0.0678,0.0682,0.0669,0.066,0.0657,0.0657,0.0827,0.0685,0.0686,0.0687,0.0687,0.0688,0.0859,0.0827,0.0815,0.0783,0.0772,0.0755,0.0724,0.0725,0.0696,0.0665,0.0677,0.0636,0.0622,0.0588,0.0577,0.0545,0.0565,0.0546,0.0541,0.0536,0.0529,0.0665,0.054,0.054,0.0541,0.0541,0.0541,0,0.0726,0.0721,0.0692,0.0666,0.0641,0.0667,0.0649,0.0625,0.0589,0.0575,0.0549,0.0508,0.0476,0.0474,0.0443,0.0418,0.0427,0.0409,0.0409,0.0407,0.0513,0.0526,0.0402,0.0402,0.0402,0.0402,0.0402,0.0402,0.0654,0.06,0.0606,0.0547,0.0542,0.0502,0.0489,0.0473,0.0462,0.0415,0.0389,0.0389,0.0379,0.0349,0.032,0.032,0.0307,0.0284,0.0288,0.0386,0.04,0.0413,0.0426,0.0282,0.0282,0.0185,0.0184,0.0183]},{"header":{"parameterUnit":"m.s-1","parameterCategory":1,"la1":30.2991,"la2":30.254,"lo1":-89.0895,"lo2":-89.0444,"dy":0.0017,"dx":0.0017,"nx":28,"ny":28,"refTime":"2024-08-09T09:00:00:Z","depth":0,"parameterNumber":3,"parameterNumberName":"V-component_of_WINDS"},"data":[0,0,0,0,0,0,0,0,0,0,0,0,0,0,0,0,0,0,0,0,0,0,0,0,0,0,0,0,0,0,0,0,0,0,0,0,0,0,0,0,0,0,0,0,0,0,0,0,0,0,0,0,0,0,0,0,0,0,-3.3082,-3.3083,0,-3.3159,-3.316,-3.3161,-3.3105,-3.3102,-3.31,-3.3098,-3.3174,-3.3178,-3.3183,0,0,0,0,0,0,0,0,0,0,0,0,0,-3.2884,-3.2888,-3.3082,-3.3083,-3.3084,-3.3159,-3.316,-3.3161,-3.3105,-3.3102,-3.3099,-3.3097,-3.3173,-3.3178,-3.3183,0,0,0,0,0,0,0,0,0,0,0,0,0,-3.2967,-3.289,-3.3082,-3.3065,-3.3065,-3.3159,-3.316,-3.3161,-3.3106,-3.3102,-3.3099,-3.3095,-3.3171,-3.3177,-3.3184,-3.3298,0,0,-3.3204,-3.3206,0,0,0,0,0,0,0,0,-3.2962,-3.2974,-3.3067,-3.3067,-3.3066,-3.3119,-3.3118,-3.3207,-3.3107,-3.309,-3.3098,-3.3093,-3.3159,-3.3166,-3.3188,-3.3301,-3.3304,-3.3204,-3.3208,-3.3211,-3.3213,0,0,0,0,0,0,0,-3.2956,-3.297,-3.3112,-3.3068,-3.3068,-3.3053,-3.3061,-3.3135,-3.3144,-3.3091,-3.3088,-3.3098,-3.3158,-3.3182,-3.319,-3.3305,-3.3204,-3.321,-3.3214,-3.3216,-3.3514,-3.3518,0,0,0,0,0,0,-3.2953,-3.2966,-3.311,-3.3115,-3.3004,-3.306,-3.3068,-3.3105,-3.3143,-3.3145,-3.3101,-3.3095,-3.3173,-3.3182,-3.3192,-3.3327,-3.3211,-3.3217,-3.3221,-3.351,-3.3515,-3.3519,0,0,0,0,0,0,-3.2949,-3.2966,-3.3107,-3.3039,-3.3056,-3.3067,-3.3109,-3.3109,-3.3133,-3.315,-3.3151,-3.3124,-3.317,-3.3183,-3.3272,-3.3329,-3.322,-3.3226,-3.3505,-3.3511,-3.3517,-3.3599,0,0,0,0,0,0,-3.2943,-3.2965,-3.3009,-3.3041,-3.306,-3.3186,-3.3113,-3.3113,-3.3145,-3.3138,-3.3173,-3.3175,-3.3168,-3.3262,-3.3278,-3.3336,-3.3231,-3.35,-3.3508,-3.3515,-3.3591,-3.3607,-3.362,0,0,0,0,0,-3.2936,-3.3029,-3.3012,-3.3029,-3.3116,-3.319,-3.3201,-3.3192,-3.315,-3.3194,-3.3204,-3.3174,-3.332,-3.3272,-3.3289,-3.335,-3.3496,-3.3506,-3.3515,-3.3584,-3.3603,-3.362,0,0,0,0,0,0,-3.3003,-3.3033,-3.3014,-3.312,-3.3153,-3.318,-3.3236,-3.3213,-3.3258,-3.325,-3.3237,-3.3245,-3.3338,-3.3352,-3.3298,-3.3461,-3.3401,-3.3414,-3.3448,-3.3467,-3.3481,-3.3476,-3.3236,0,0,0,0,0,-3.303,-3.3089,-3.3111,-3.3202,-3.322,-3.3225,-3.3257,-3.3248,-3.3281,-3.3294,-3.3311,-3.3344,-3.3397,-3.3433,-3.3483,-3.3592,-3.3598,-3.3642,-3.3657,-3.3669,-3.368,-3.3738,-3.3758,-3.3549,-3.3549,-3.3549,0,0,-3.3087,-3.311,-3.3148,-3.3216,-3.3241,-3.3301,-3.3237,-3.3304,-3.3348,-3.3304,-3.3389,-3.3403,-3.3438,-3.3538,-3.3582,-3.3553,-3.3739,-3.3681,-3.369,-3.3695,-3.375,-3.377,-3.3787,-3.3555,-3.3554,-3.3553,0,0,-3.3221,-3.3245,-3.3323,-3.3349,-3.3386,-3.3389,-3.3408,-3.3439,-3.3446,-3.3531,-3.3499,-3.3551,-3.3643,-3.367,-3.3695,-3.3838,-3.3811,-3.3854,-3.3931,-3.3988,-3.4004,-3.4019,-3.4069,-3.4087,-3.3865,-3.3865,-3.3866,0,-3.3286,-3.3376,-3.3366,-3.3435,-3.3465,-3.3428,-3.3507,-3.3532,-3.3584,-3.3605,-3.3572,-3.3686,-3.3707,-3.3812,-3.3847,-3.3869,-3.3889,-3.385,-3.4003,-3.4017,-3.4031,-3.4078,-3.4097,-3.387,-3.387,-3.3869,-3.3869,0,-3.3455,-3.3517,-3.3576,-3.3627,-3.3664,-3.3737,-3.3737,-3.3775,-3.3762,-3.3768,-3.3854,-3.3878,-3.3932,-3.3956,-3.3944,-3.4059,-3.4039,-3.4005,-3.3944,-3.4056,-3.41,-3.4119,-3.3878,-3.3876,-3.3874,-3.3873,0,0,-3.3634,-3.3678,-3.3699,-3.3722,-3.376,-3.3808,-3.3879,-3.3932,-3.3965,-3.4002,-3.406,-3.4138,-3.4106,-3.4135,-3.4125,-3.4175,-3.4285,-3.4134,-3.4135,-3.4161,-3.4413,-3.4439,-3.446,-3.4268,-3.4271,-3.4274,-3.4409,0,-3.3769,-3.3894,-3.3886,-3.4002,-3.4059,-3.4025,-3.4086,-3.4116,-3.4123,-3.4172,-3.4179,-3.4234,-3.4188,-3.4205,-3.4253,-3.4262,-3.4336,-3.4252,-3.4321,-3.4324,-3.4314,-3.4484,-3.4512,-3.4639,-3.4427,-3.443,-3.4432,0,-3.3945,-3.3988,-3.411,-3.4139,-3.4163,-3.4219,-3.4266,-3.4313,-3.4345,-3.4347,-3.4379,-3.436,-3.443,-3.4368,-3.4464,-3.4407,-3.4435,-3.4443,-3.4448,-3.4454,-3.4385,-3.4494,-3.4679,-3.4698,-3.4459,-3.4457,-3.4455,0,-3.4063,-3.4151,-3.4236,-3.4256,-3.4292,-3.4332,-3.4348,-3.4377,-3.4409,-3.445,-3.447,-3.4519,-3.4545,-3.4583,-3.4577,-3.4533,-3.4675,-3.4612,-3.4677,-3.4677,-3.4709,-3.4707,-3.4901,-3.4727,-3.4726,-3.4726,-3.4726,0,-3.4215,-3.4292,-3.4289,-3.4341,-3.4425,-3.4414,-3.4497,-3.4509,-3.4535,-3.4587,-3.456,-3.461,-3.46,-3.4649,-3.4645,-3.4725,-3.4737,-3.4739,-3.4738,-3.4742,-3.4742,-3.476,-3.4751,-3.4731,-3.473,-3.4729,-3.4728,0,-3.4362,-3.4363,-3.4453,-3.448,-3.4488,-3.4548,-3.457,-3.4619,-3.4623,-3.469,-3.4705,-3.4712,-3.4768,-3.4767,-3.4831,-3.4828,-3.4926,-3.4914,-3.4915,-3.4913,-3.4978,-3.4972,-3.519,-3.5218,-3.5026,-3.5028,-3.5029,0,-3.4459,-3.4517,-3.4549,-3.4583,-3.4602,-3.4657,-3.469,-3.468,-3.4715,-3.4755,-3.4799,-3.4853,-3.4896,-3.4988,-3.4998,-3.5047,-3.5035,-3.5108,-3.5042,-3.5045,-3.5036,-3.5033,-3.5038,-3.5121,-3.5124,-3.5125,-3.5127,0,-3.4632,-3.4629,-3.4678,-3.4726,-3.4766,-3.4804,-3.4838,-3.4867,-3.4861,-3.4901,-3.4959,-3.4993,-3.5058,-3.5112,-3.5158,-3.5174,-3.515,-3.5147,-3.5165,-3.517,-3.5169,-3.517,-3.4951,-3.5143,-3.5141,-3.514,-3.5139,-3.5138,-3.4757,-3.4806,-3.4836,-3.4891,-3.4916,-3.4948,-3.4995,-3.5005,-3.5053,-3.5106,-3.5097,-3.5162,-3.5191,-3.5251,-3.5271,-3.5321,-3.5295,-3.532,-3.5327,-3.5333,-3.534,-3.5161,-3.5329,-3.5328,-3.5328,-3.5328,-3.5327,0,-3.4928,-3.4945,-3.4995,-3.5044,-3.5087,-3.506,-3.5096,-3.5134,-3.5191,-3.5221,-3.5263,-3.5329,-3.5381,-3.5395,-3.5444,-3.5481,-3.5471,-3.5494,-3.5492,-3.5496,-3.5361,-3.5341,-3.5502,-3.5502,-3.5502,-3.5502,-3.5502,-3.5501,-3.5022,-3.5104,-3.5105,-3.5198,-3.5215,-3.5279,-3.5302,-3.5331,-3.5354,-3.543,-3.5473,-3.5481,-3.5504,-3.5555,-3.56,-3.5603,-3.5622,-3.565,-3.5648,-3.5523,-3.5505,-3.5488,-3.5469,-3.5655,-3.5655,-3.5779,-3.578,-3.5781]}]]